GW7344 Weather Reports


Display with metric or nautical units.
time (UTC)temp
F
wind
direction
speed
MPH
gust
MPH
rain 1hr
in
rain 24hr
in
rain mn
in
humidity
%
barometer
mb
20260509113939 56 360 0.0 2.0 0.00 0.02 0.00 52 1006.7
20260509113437 56 272 1.0 8.0 0.00 0.02 0.00 53 1006.7
20260509112936 56 324 2.0 4.0 0.00 0.02 0.00 53 1006.7
20260509112432 56 315 1.0 4.0 0.00 0.02 0.00 53 1006.7
20260509111928 56 321 2.0 2.0 0.00 0.02 0.00 53 1006.7
20260509111426 56 320 1.0 4.0 0.00 0.02 0.00 53 1006.4
20260509110912 56 321 1.0 5.0 0.00 0.02 0.00 53 1006.4
20260509110411 56 360 0.0 7.0 0.00 0.02 0.00 52 1006.4
20260509105901 56 315 1.0 2.0 0.00 0.02 0.00 52 1006.4
20260509105358 56 360 0.0 2.0 0.00 0.02 0.00 52 1006.4
20260509104855 56 270 0.0 0.0 0.00 0.02 0.00 52 1006.4
20260509104351 56 270 0.0 2.0 0.00 0.02 0.00 52 1006.4
20260509103838 55 304 1.0 2.0 0.00 0.02 0.00 52 1006.4
20260509103336 55 180 0.0 1.0 0.00 0.02 0.00 52 1006.4
20260509102833 55 360 0.0 2.0 0.00 0.02 0.00 53 1006.4
20260509102330 55 315 0.0 1.0 0.00 0.02 0.00 52 1006.4
20260509101827 55 315 0.0 4.0 0.00 0.02 0.00 52 1006.4
20260509101323 55 202 0.0 0.0 0.00 0.02 0.00 52 1006.4
20260509100808 55 270 0.0 1.0 0.00 0.02 0.00 52 1006.4
20260509100253 55 242 0.0 1.0 0.00 0.02 0.00 52 1006.4
20260509095739 55 180 0.0 0.0 0.00 0.02 0.00 52 1006.4
20260509095238 55 360 0.0 1.0 0.00 0.02 0.00 52 1006.4
20260509094736 55 177 0.0 1.0 0.00 0.02 0.00 52 1006.4
20260509094232 55 315 0.0 2.0 0.00 0.02 0.00 51 1006.4
20260509093729 55 360 0.0 1.0 0.00 0.02 0.00 51 1006.4
20260509093228 55 315 0.0 2.0 0.00 0.02 0.00 51 1006.4
20260509092716 55 360 0.0 1.0 0.00 0.02 0.00 51 1006.4
20260509092209 55 315 0.0 1.0 0.00 0.02 0.00 51 1006.4
20260509091703 55 225 0.0 2.0 0.00 0.02 0.00 50 1006.4
20260509091200 55 315 0.0 4.0 0.00 0.02 0.00 51 1006.7
20260509090658 55 357 3.0 5.0 0.00 0.02 0.00 51 1006.7
20260509090156 55 289 1.0 2.0 0.00 0.02 0.00 50 1006.7
20260509085726 55 247 0.0 2.0 0.00 0.01 0.00 50 1006.7
20260509085206 55 315 1.0 5.0 0.00 0.01 0.00 50 1006.7
20260509084701 55 310 1.0 2.0 0.00 0.01 0.00 50 1006.7
20260509084148 55 315 0.0 1.0 0.00 0.01 0.00 50 1006.7
20260509083646 55 270 1.0 2.0 0.00 0.01 0.00 50 1006.7
20260509083143 56 324 1.0 2.0 0.00 0.01 0.00 50 1006.7
20260509082637 56 301 0.0 1.0 0.00 0.01 0.00 50 1006.7
20260509082136 56 225 0.0 2.0 0.00 0.01 0.00 50 1007.1
20260509081631 56 296 0.0 4.0 0.00 0.01 0.00 50 1006.7
20260509081124 56 293 2.0 4.0 0.00 0.01 0.00 50 1006.7
20260509080602 56 329 2.0 4.0 0.00 0.01 0.00 50 1007.1
20260509080059 56 347 1.0 2.0 0.00 0.01 0.00 50 1007.1
20260509075556 56 315 1.0 4.0 0.00 0.01 0.00 50 1007.1
20260509075052 56 360 0.0 1.0 0.00 0.01 0.00 50 1007.1
20260509074527 56 180 0.0 2.0 0.00 0.01 0.00 49 1007.1
20260509074025 56 326 1.0 2.0 0.00 0.01 0.00 49 1007.1
20260509073518 56 337 0.0 0.0 0.00 0.01 0.00 49 1007.1
20260509073003 56 360 0.0 5.0 0.00 0.01 0.00 49 1007.1
20260509072459 56 315 0.0 2.0 0.00 0.01 0.00 49 1007.1
20260509071958 56 315 0.0 4.0 0.00 0.01 0.00 49 1007.1
20260509071455 56 225 0.0 1.0 0.00 0.01 0.00 48 1007.1
20260509070952 56 330 2.0 5.0 0.00 0.01 0.00 48 1007.1
20260509070451 56 159 1.0 5.0 0.00 0.01 0.00 49 1007.1
20260509065947 56 315 1.0 4.0 0.00 0.01 0.00 49 1007.1
20260509065443 56 310 2.0 2.0 0.00 0.01 0.00 49 1007.1
20260509064930 56 315 0.0 2.0 0.00 0.01 0.00 49 1007.1
20260509064428 56 308 3.0 5.0 0.00 0.01 0.00 49 1007.1
20260509063923 56 315 0.0 1.0 0.00 0.01 0.00 49 1007.1
20260509063417 56 315 0.0 2.0 0.00 0.01 0.00 49 1007.1
20260509062900 56 314 0.0 2.0 0.00 0.01 0.00 49 1007.1
20260509062356 56 270 0.0 4.0 0.00 0.01 0.00 49 1007.1
20260509061841 55 319 2.0 4.0 0.00 0.01 0.00 49 1007.1
20260509061336 56 315 0.0 1.0 0.00 0.01 0.00 49 1007.4
20260509060835 56 316 1.0 7.0 0.00 0.01 0.00 49 1007.4
20260509060324 55 333 2.0 4.0 0.00 0.01 0.00 50 1007.4
20260509055819 55 346 1.0 5.0 0.00 0.01 0.00 49 1007.4
20260509055318 55 347 2.0 4.0 0.00 0.01 0.00 50 1007.4
20260509054805 55 274 1.0 7.0 0.00 0.01 0.00 50 1007.4
20260509054304 55 207 0.0 2.0 0.00 0.01 0.00 50 1007.4
20260509053803 55 315 0.0 5.0 0.00 0.01 0.00 51 1007.4
20260509053242 54 272 0.0 4.0 0.00 0.01 0.00 51 1007.4
20260509052738 54 180 0.0 1.0 0.00 0.01 0.00 52 1007.4
20260509052230 54 225 0.0 0.0 0.00 0.01 0.00 52 1007.4
20260509051719 54 225 0.0 0.0 0.00 0.01 0.00 52 1007.4
20260509051216 54 225 0.0 0.0 0.00 0.01 0.00 52 1007.4
20260509050713 53 225 0.0 1.0 0.00 0.01 0.00 52 1007.4
20260509050158 53 337 0.0 0.0 0.00 0.01 0.00 52 1007.4
20260509045656 54 337 0.0 0.0 0.00 0.01 0.00 52 1007.4
20260509045147 54 337 0.0 0.0 0.00 0.01 0.00 52 1007.4
20260509044642 54 337 0.0 0.0 0.00 0.01 0.00 52 1007.4
20260509044128 54 292 0.0 1.0 0.00 0.01 0.00 52 1007.4
20260509043625 54 292 0.0 1.0 0.00 0.01 0.00 52 1007.4
20260509043122 54 292 0.0 0.0 0.00 0.01 0.00 52 1007.4
20260509042609 54 292 0.0 0.0 0.00 0.01 0.00 52 1007.4
20260509042106 54 360 0.0 0.0 0.00 0.01 0.00 52 1007.4
20260509041557 54 360 0.0 0.0 0.00 0.01 0.00 52 1007.7
20260509041049 54 360 0.0 0.0 0.00 0.01 0.00 51 1007.7
20260509040546 54 360 0.0 0.0 0.00 0.01 0.00 51 1007.7
20260509040043 54 360 0.0 0.0 0.00 0.01 0.00 51 1007.7
20260509035532 54 360 0.0 1.0 0.00 0.01 0.00 51 1007.7
20260509035027 54 360 0.0 0.0 0.00 0.01 0.00 51 1007.4
20260509034522 54 360 0.0 1.0 0.00 0.01 0.00 52 1007.7
20260509034014 55 270 0.0 1.0 0.00 0.01 0.00 51 1007.7
20260509033512 55 360 0.0 0.0 0.00 0.01 0.00 50 1007.7
20260509033010 55 360 0.0 0.0 0.00 0.01 0.00 51 1007.7
20260509032505 55 360 0.0 1.0 0.00 0.01 0.00 49 1007.7
20260509031953 55 360 0.0 1.0 0.00 0.01 0.00 49 1007.7
20260509031445 55 360 0.0 1.0 0.01 0.01 0.00 49 1007.7
20260509030939 55 360 0.0 1.0 0.01 0.01 0.00 49 1007.7
20260509030434 55 360 0.0 0.0 0.01 0.01 0.00 49 1007.7
20260509025931 55 360 0.0 0.0 0.01 0.01 0.00 48 1008.1
20260509025424 55 360 0.0 0.0 0.01 0.01 0.00 48 1008.1
20260509024906 56 360 0.0 0.0 0.01 0.01 0.00 48 1008.1
20260509024354 56 360 0.0 0.0 0.01 0.01 0.00 47 1008.1
20260509023725 56 360 0.0 0.0 0.01 0.01 0.00 47 1008.1
20260509023223 56 360 0.0 0.0 0.01 0.01 0.00 47 1008.1
20260509022714 57 360 0.0 0.0 0.01 0.01 0.00 46 1008.1
20260509022212 57 360 0.0 0.0 0.01 0.01 0.00 46 1007.7
20260509021706 57 360 0.0 0.0 0.00 0.00 0.00 45 1007.7
20260509021150 58 360 0.0 0.0 0.00 0.00 0.00 45 1007.7
20260509020648 58 360 0.0 0.0 0.00 0.00 0.00 44 1007.7
20260509020146 58 360 0.0 1.0 0.00 0.00 0.00 44 1007.7
20260509015635 59 360 0.0 0.0 0.00 0.00 0.00 43 1007.7
20260509015133 59 360 0.0 1.0 0.00 0.00 0.00 43 1007.7
20260509014630 59 111 0.0 0.0 0.00 0.00 0.00 42 1007.4
20260509014054 59 348 2.0 4.0 0.00 0.02 0.00 42 1007.4
20260509013553 59 360 0.0 2.0 0.01 0.02 0.00 41 1007.4
20260509013037 60 1 1.0 2.0 0.01 0.02 0.00 41 1007.4
20260509012536 60 360 0.0 1.0 0.01 0.02 0.00 41 1007.4
20260509012028 60 315 1.0 1.0 0.01 0.02 0.00 40 1007.4
20260509011518 60 45 0.0 1.0 0.01 0.02 0.00 40 1007.4
20260509011013 61 45 0.0 1.0 0.01 0.02 0.00 40 1007.4
20260509010458 61 45 0.0 0.0 0.01 0.02 0.00 39 1007.4
20260509005946 61 45 0.0 1.0 0.01 0.02 0.00 38 1007.4
20260509005441 62 315 0.0 0.0 0.01 0.02 0.00 38 1007.4
20260509004924 62 360 0.0 0.0 0.01 0.02 0.00 38 1007.4
20260509004411 63 360 0.0 1.0 0.01 0.02 0.00 37 1007.4
20260509003904 63 360 0.0 1.0 0.01 0.02 0.00 37 1007.4
20260509003401 64 360 0.0 2.0 0.00 0.01 0.00 36 1007.4
20260509002857 64 337 0.0 0.0 0.00 0.01 0.00 36 1007.1
20260509002350 64 315 0.0 1.0 0.00 0.01 0.00 36 1007.4
20260509001846 65 315 0.0 1.0 0.00 0.01 0.00 35 1007.1
20260509001340 65 360 0.0 2.0 0.00 0.01 0.00 34 1007.1
20260509000834 65 270 0.0 1.0 0.00 0.01 0.00 34 1007.1
20260509000304 66 270 0.0 1.0 0.00 0.01 0.00 34 1007.1